Location: Marstown
(39.5056°N, 77.0820°W)
Time: 12:05:54
(UTC-04:00)

N. Korean satellite - Visible Passes

Search period start: 22 March 2019 00:00
Search period end: 01 April 2019 00:00
Orbit: 456 x 510 km, 97.2° (Epoch: 22 March)

Date Brightness Start Highest point End Pass type
(mag) Time Alt. Az. Time Alt. Az. Time Alt. Az.
23 Mar 9.7 06:34:43 10° NE 06:37:29 21° E 06:40:18 10° SSE visible
24 Mar 10.5 06:11:52 10° E 06:12:31 10° E 06:13:09 10° ESE visible
27 Mar 9.8 06:29:01 10° NE 06:31:35 18° E 06:34:10 10° SE visible
31 Mar 9.9 06:23:19 10° NE 06:25:37 16° E 06:27:56 10° SE visible
